Location: Whitehorse
(60.7170°N, 135.0500°W)
Time: 10:32:22
(UTC-08:00)

Envisat - Pass Details

Date: 26 October 2019
Orbit: 764 x 766 km, 98.1° (Epoch: 12 November)

Event Time Altitude Azimuth Distance (km) Brightness Sun altitude
Rises 20:11:27 0° 178° (S) 3,225 6.2 -14.3°
Reaches altitude 10° 20:13:48 10° 184° (S) 2,303 5.5 -14.6°
Maximum altitude 20:18:45 51° 260° (W) 961 3.9 -15.2°
Drops below altitude 10° 20:23:44 10° 337° (NNW) 2,317 5.8 -15.9°
Sets 20:26:07 0° 342° (NNW) 3,247 6.5 -16.1°
